Total_Precipitation_Accumulation
0.12 0.11 0.12 0.15 0.17 0.23 0.27 0.23 0.18 0.13 0.08 0.06 0.05 0.05 0.05 0.03 0.04 0.09 0.11 0.11 0.12 0.17 0.23 0.23 0.20 0.20 0.20 0.19 0.18 0.17 0.16 0.14 0.14 0.13 0.10 0.09 0.08 0.09 0.09 0.08 0.09 0.10 0.12
0.14 0.16 0.18 0.21 0.18 0.20 0.24 0.25 0.25 0.19 0.12 0.09 0.09 0.10 0.10 0.07 0.06 0.10 0.13 0.18 0.18 0.19 0.23 0.26 0.28 0.28 0.26 0.26 0.28 0.25 0.24 0.21 0.21 0.22 0.20 0.16 0.14 0.13 0.12 0.11 0.10 0.09 0.10
0.15 0.17 0.25 0.31 0.29 0.27 0.27 0.28 0.28 0.26 0.21 0.17 0.20 0.20 0.18 0.20 0.21 0.18 0.15 0.21 0.26 0.27 0.31 0.30 0.28 0.27 0.25 0.27 0.32 0.33 0.32 0.30 0.31 0.32 0.30 0.27 0.24 0.20 0.18 0.16 0.15 0.14 0.13
0.22 0.29 0.39 0.45 0.49 0.48 0.49 0.51 0.48 0.45 0.42 0.36 0.32 0.29 0.27 0.26 0.24 0.25 0.21 0.21 0.27 0.30 0.32 0.28 0.25 0.26 0.24 0.26 0.30 0.34 0.38 0.38 0.38 0.35 0.35 0.35 0.33 0.28 0.25 0.23 0.22 0.21 0.19
0.46 0.59 0.71 0.78 0.79 0.79 0.78 0.73 0.73 0.68 0.70 0.62 0.49 0.40 0.33 0.29 0.30 0.27 0.21 0.20 0.24 0.29 0.31 0.30 0.25 0.21 0.19 0.21 0.25 0.31 0.37 0.41 0.41 0.38 0.37 0.40 0.41 0.37 0.31 0.29 0.27 0.24 0.22
0.84 0.95 1.01 1.08 1.10 1.12 1.06 1.01 0.94 0.82 0.74 0.65 0.52 0.42 0.38 0.34 0.31 0.27 0.22 0.17 0.16 0.17 0.19 0.20 0.20 0.18 0.17 0.18 0.20 0.23 0.28 0.36 0.42 0.42 0.39 0.42 0.46 0.43 0.37 0.33 0.32 0.30 0.28
1.48 1.48 1.47 1.45 1.36 1.32 1.25 1.12 0.98 0.88 0.78 0.64 0.54 0.44 0.34 0.26 0.23 0.22 0.18 0.14 0.12 0.12 0.12 0.12 0.13 0.13 0.13 0.14 0.16 0.16 0.17 0.24 0.33 0.35 0.34 0.40 0.45 0.43 0.39 0.37 0.35 0.33 0.33
2.24 2.11 1.95 1.73 1.53 1.42 1.34 1.21 1.04 0.91 0.78 0.64 0.55 0.50 0.38 0.28 0.20 0.14 0.12 0.11 0.09 0.08 0.09 0.08 0.09 0.09 0.08 0.06 0.06 0.12 0.16 0.13 0.16 0.22 0.32 0.39 0.40 0.40 0.40 0.39 0.37 0.36 0.35
2.50 2.31 2.04 1.81 1.67 1.55 1.42 1.29 1.09 0.95 0.76 0.58 0.46 0.45 0.42 0.33 0.22 0.13 0.08 0.06 0.05 0.05 0.05 0.05 0.05 0.04 0.05 0.04 0.04 0.05 0.10 0.13 0.11 0.13 0.24 0.34 0.37 0.38 0.40 0.42 0.42 0.43 0.44
2.23 1.98 1.81 1.72 1.61 1.46 1.32 1.12 0.90 0.75 0.61 0.49 0.41 0.37 0.32 0.27 0.23 0.16 0.10 0.06 0.05 0.04 0.04 0.04 0.03 0.03 0.04 0.05 0.05 0.06 0.08 0.10 0.11 0.11 0.15 0.22 0.28 0.31 0.33 0.36 0.41 0.45 0.48
1.90 1.66 1.49 1.39 1.30 1.14 0.94 0.74 0.58 0.49 0.40 0.33 0.28 0.25 0.22 0.19 0.17 0.16 0.13 0.08 0.05 0.03 0.03 0.03 0.03 0.04 0.04 0.05 0.06 0.07 0.09 0.10 0.11 0.12 0.12 0.13 0.18 0.23 0.29 0.34 0.41 0.48 0.53
1.49 1.27 1.03 0.86 0.72 0.58 0.45 0.35 0.29 0.25 0.22 0.19 0.16 0.15 0.15 0.15 0.14 0.14 0.14 0.09 0.06 0.04 0.03 0.03 0.03 0.03 0.03 0.04 0.05 0.08 0.11 0.14 0.14 0.15 0.14 0.13 0.13 0.15 0.19 0.27 0.35 0.43 0.53
0.99 0.77 0.59 0.47 0.37 0.30 0.24 0.19 0.16 0.13 0.11 0.11 0.11 0.11 0.10 0.09 0.09 0.10 0.12 0.10 0.07 0.04 0.02 0.02 0.01 0.01 0.01 0.02 0.04 0.09 0.15 0.14 0.13 0.12 0.11 0.10 0.10 0.09 0.10 0.13 0.20 0.28 0.38
0.53 0.42 0.33 0.26 0.20 0.15 0.11 0.09 0.07 0.07 0.07 0.08 0.07 0.08 0.09 0.08 0.08 0.10 0.13 0.15 0.14 0.08 0.03 0.02 0.01 0.01 0.01 0.05 0.11 0.14 0.20 0.12 0.10 0.08 0.07 0.06 0.05 0.06 0.07 0.08 0.11 0.14 0.19
0.28 0.22 0.17 0.12 0.08 0.07 0.07 0.06 0.06 0.06 0.07 0.08 0.08 0.08 0.09 0.09 0.09 0.10 0.12 0.15 0.20 0.18 0.11 0.04 0.03 0.04 0.06 0.14 0.24 0.28 0.27 0.19 0.13 0.09 0.07 0.05 0.05 0.05 0.06 0.06 0.07 0.08 0.11
0.14 0.12 0.10 0.09 0.07 0.06 0.06 0.06 0.06 0.07 0.08 0.09 0.10 0.10 0.10 0.09 0.10 0.10 0.10 0.13 0.19 0.26 0.22 0.08 0.04 0.05 0.09 0.15 0.28 0.33 0.36 0.32 0.23 0.15 0.10 0.08 0.06 0.07 0.07 0.08 0.09 0.10 0.13
0.09 0.08 0.08 0.08 0.08 0.08 0.07 0.08 0.09 0.09 0.09 0.08 0.08 0.09 0.08 0.09 0.10 0.10 0.10 0.12 0.14 0.21 0.24 0.12 0.06 0.06 0.13 0.21 0.28 0.31 0.32 0.31 0.27 0.25 0.17 0.14 0.12 0.10 0.10 0.11 0.12 0.16 0.20
0.07 0.08 0.08 0.08 0.07 0.06 0.07 0.08 0.08 0.08 0.08 0.08 0.07 0.08 0.08 0.08 0.09 0.09 0.10 0.11 0.14 0.20 0.29 0.24 0.13 0.09 0.12 0.19 0.26 0.28 0.24 0.23 0.25 0.28 0.22 0.15 0.13 0.13 0.17 0.15 0.12 0.15 0.21
0.08 0.08 0.07 0.06 0.06 0.07 0.08 0.07 0.07 0.06 0.06 0.06 0.07 0.08 0.09 0.10 0.09 0.11 0.14 0.15 0.18 0.22 0.30 0.33 0.21 0.16 0.17 0.24 0.35 0.34 0.30 0.37 0.31 0.26 0.22 0.17 0.15 0.16 0.39 0.45 0.22 0.18 0.21
0.09 0.08 0.08 0.07 0.07 0.07 0.06 0.04 0.03 0.04 0.04 0.05 0.06 0.09 0.10 0.11 0.13 0.18 0.19 0.22 0.27 0.31 0.32 0.35 0.28 0.21 0.23 0.29 0.40 0.48 0.44 0.42 0.38 0.24 0.27 0.23 0.22 0.27 0.64 1.19 0.66 0.34 0.29
0.09 0.09 0.08 0.07 0.06 0.04 0.02 0.01 0.01 0.01 0.03 0.04 0.06 0.09 0.11 0.11 0.16 0.19 0.19 0.24 0.32 0.38 0.40 0.42 0.36 0.30 0.28 0.37 0.47 0.51 0.48 0.45 0.38 0.32 0.38 0.33 0.49 0.82 1.34 1.98 1.52 0.87 0.62
0.11 0.08 0.05 0.04 0.03 0.02 0.01 0.01 0.01 0.01 0.02 0.05 0.09 0.10 0.08 0.07 0.08 0.09 0.14 0.21 0.30 0.39 0.46 0.51 0.48 0.44 0.37 0.44 0.54 0.58 0.58 0.57 0.45 0.32 0.37 0.38 0.68 1.41 2.11 2.52 2.10 1.31 0.97
0.08 0.07 0.05 0.04 0.05 0.03 0.00 0.00 0.00 0.01 0.04 0.09 0.12 0.12 0.09 0.08 0.12 0.17 0.17 0.17 0.25 0.33 0.46 0.59 0.61 0.52 0.49 0.53 0.67 0.71 0.66 0.65 0.59 0.43 0.46 0.47 0.81 1.66 2.04 2.29 2.10 1.44 1.14
0.07 0.06 0.05 0.05 0.07 0.04 0.00 0.00 0.00 0.01 0.06 0.09 0.10 0.12 0.15 0.18 0.16 0.13 0.14 0.22 0.32 0.42 0.48 0.54 0.60 0.55 0.52 0.54 0.63 0.67 0.64 0.62 0.51 0.44 0.53 0.62 0.90 1.53 1.68 1.83 1.93 1.50 1.22
0.06 0.05 0.04 0.05 0.08 0.07 0.01 0.00 0.00 0.02 0.05 0.07 0.09 0.11 0.12 0.17 0.13 0.12 0.19 0.31 0.39 0.52 0.60 0.73 0.72 0.67 0.66 0.65 0.56 0.53 0.63 0.71 0.62 0.44 0.47 0.62 0.84 1.20 1.33 1.47 1.53 1.45 1.33
0.06 0.05 0.05 0.06 0.08 0.09 0.02 0.00 0.01 0.03 0.05 0.06 0.09 0.14 0.13 0.10 0.11 0.15 0.22 0.38 0.54 0.62 0.79 0.99 0.94 0.87 0.81 0.77 0.66 0.58 0.71 0.82 0.77 0.59 0.48 0.57 0.73 0.92 1.13 1.24 1.19 1.18 1.27